Location: Bonaustraße
(48.4603°N, 11.9280°E)
Time: 03:06:29
(UTC+01:00)

Envisat - Pass Details

Date: 26 January 2021
Orbit: 764 x 766 km, 98.1° (Epoch: 05 March)

Event Time Altitude Azimuth Distance (km) Brightness Sun altitude
Rises 06:35:09 0° 10° (N) 3,245 6.2 -12.2°
Reaches altitude 10° 06:37:30 10° 6° (N) 2,314 5.4 -11.8°
Maximum altitude 06:42:28 56° 290° (WNW) 914 3.1 -11.0°
Drops below altitude 10° 06:47:24 10° 213° (SSW) 2,297 5.3 -10.2°
Sets 06:49:44 0° 209° (SSW) 3,218 6.1 -9.9°
